TAP015 LPPT-SBRF

Flight info

Callsign TAP015
Flight time N/A
Altitude 33000
Route BEVOP DCT BAROK UN873 SAMAR N873 IPERA UN873 FEMUR DCT ESGUM
Aircraft A21N/M-SADE1E2E3FGHIJ1J3J7M3P2RWXYZ/LB1D1

Departure

Time N/A
Airport Lisbon Humberto Delgado Airport (LPPT)

Arrival

Time 2026-05-04 20:40
Airport Recife/Guararapes - Gilberto Freyre International Airport (SBRF)
Time Latitude Longitude Altitude Speed Heading
2026-05-04 13:53 25.72973 -17.11660 31040 ft 409 kts 217°
2026-05-04 13:54 25.65782 -17.16714 31042 ft 409 kts 217°
2026-05-04 13:55 25.58546 -17.21794 31037 ft 409 kts 217°
2026-05-04 13:55 25.51317 -17.26856 31018 ft 411 kts 217°
2026-05-04 13:56 25.46506 -17.30223 31033 ft 411 kts 217°
2026-05-04 13:57 25.39239 -17.35289 31037 ft 411 kts 217°
2026-05-04 13:58 25.29587 -17.42019 31037 ft 410 kts 217°
2026-05-04 13:58 25.22332 -17.47057 31035 ft 410 kts 217°
2026-05-04 13:59 25.17507 -17.50407 31018 ft 412 kts 216°
2026-05-04 14:00 25.10239 -17.55450 31029 ft 412 kts 216°
2026-05-04 14:00 25.02956 -17.60500 31033 ft 412 kts 216°
2026-05-04 14:01 24.98095 -17.63870 31035 ft 412 kts 216°
2026-05-04 14:02 24.90823 -17.68901 31023 ft 412 kts 216°
2026-05-04 14:02 24.85956 -17.72262 31009 ft 413 kts 216°
2026-05-04 14:03 24.81106 -17.75605 31078 ft 413 kts 216°
2026-05-04 14:03 24.78675 -17.77278 31246 ft 412 kts 216°
2026-05-04 14:03 24.76242 -17.78952 31471 ft 412 kts 216°
2026-05-04 14:03 24.73810 -17.80624 31711 ft 411 kts 216°
2026-05-04 14:04 24.68963 -17.83959 32207 ft 410 kts 216°
2026-05-04 14:04 24.66535 -17.85628 32463 ft 410 kts 216°
2026-05-04 14:04 24.64146 -17.87269 32708 ft 409 kts 216°
2026-05-04 14:05 24.59317 -17.90584 33226 ft 407 kts 216°
2026-05-04 14:05 24.56946 -17.92209 33485 ft 405 kts 216°
2026-05-04 14:05 24.54553 -17.93850 33748 ft 404 kts 216°
2026-05-04 14:06 24.52179 -17.95477 33970 ft 402 kts 216°
2026-05-04 14:06 24.47399 -17.98750 34040 ft 403 kts 216°
2026-05-04 14:07 24.42627 -18.02014 34021 ft 403 kts 216°
2026-05-04 14:07 24.37888 -18.05252 34011 ft 403 kts 216°
2026-05-04 14:08 24.33109 -18.08518 34016 ft 403 kts 216°
2026-05-04 14:08 24.28353 -18.11762 34013 ft 402 kts 216°
2026-05-04 14:09 24.21254 -18.16604 33984 ft 402 kts 216°
2026-05-04 14:10 24.14069 -18.21494 34000 ft 404 kts 216°
2026-05-04 14:10 24.09315 -18.24728 34004 ft 405 kts 216°
2026-05-04 14:11 24.04522 -18.27984 34004 ft 405 kts 216°
2026-05-04 14:11 23.97340 -18.32856 34006 ft 405 kts 216°
2026-05-04 14:12 23.92567 -18.36092 34000 ft 405 kts 216°
2026-05-04 14:13 23.85400 -18.40945 33997 ft 407 kts 215°
2026-05-04 14:13 23.80573 -18.44210 34009 ft 407 kts 216°
2026-05-04 14:14 23.75757 -18.47463 33988 ft 406 kts 216°
2026-05-04 14:14 23.68562 -18.52318 33987 ft 406 kts 216°
2026-05-04 14:15 23.58967 -18.58780 34002 ft 406 kts 216°
2026-05-04 14:16 23.51780 -18.63619 33992 ft 406 kts 216°
2026-05-04 14:17 23.44573 -18.68472 33993 ft 406 kts 216°
2026-05-04 14:18 23.37368 -18.73311 34002 ft 406 kts 216°
2026-05-04 14:19 23.27741 -18.79762 33988 ft 406 kts 216°
2026-05-04 14:19 23.22957 -18.82964 33988 ft 406 kts 215°
2026-05-04 14:20 23.18119 -18.86196 33989 ft 409 kts 215°
2026-05-04 14:20 23.13275 -18.89436 33993 ft 409 kts 215°
2026-05-04 14:21 23.06019 -18.94276 33989 ft 409 kts 215°
2026-05-04 14:21 23.01164 -18.97511 33988 ft 409 kts 215°
2026-05-04 14:22 22.96341 -19.00728 33991 ft 408 kts 215°
2026-05-04 14:22 22.91478 -19.03962 33988 ft 408 kts 215°
2026-05-04 14:23 22.84200 -19.08802 33980 ft 411 kts 215°
2026-05-04 14:24 22.79316 -19.12047 33995 ft 411 kts 215°
2026-05-04 14:24 22.74469 -19.15262 33989 ft 410 kts 215°
2026-05-04 14:25 22.69593 -19.18500 33986 ft 410 kts 215°
2026-05-04 14:25 22.62267 -19.23350 33985 ft 410 kts 215°
2026-05-04 14:26 22.57422 -19.26555 33985 ft 410 kts 215°
2026-05-04 14:26 22.52536 -19.29786 33973 ft 411 kts 215°
2026-05-04 14:27 22.47673 -19.32998 33978 ft 412 kts 215°
2026-05-04 14:27 22.42774 -19.36230 33983 ft 412 kts 215°
2026-05-04 14:28 22.37865 -19.39467 33981 ft 412 kts 215°
2026-05-04 14:28 22.33004 -19.42672 33983 ft 412 kts 215°
2026-05-04 14:29 22.23197 -19.49124 33980 ft 412 kts 215°
2026-05-04 14:30 22.18326 -19.52325 33967 ft 412 kts 215°
2026-05-04 14:31 22.10965 -19.57160 33982 ft 412 kts 215°
2026-05-04 14:32 22.01171 -19.63581 33974 ft 412 kts 215°
2026-05-04 14:32 21.96266 -19.66792 33977 ft 412 kts 215°
2026-05-04 14:33 21.91360 -19.70000 33979 ft 412 kts 215°
2026-05-04 14:33 21.86447 -19.73214 33964 ft 411 kts 215°
2026-05-04 14:34 21.81588 -19.76388 33974 ft 411 kts 215°
2026-05-04 14:34 21.76705 -19.79573 33976 ft 410 kts 215°
2026-05-04 14:35 21.71787 -19.82780 33977 ft 413 kts 215°
2026-05-04 14:35 21.66891 -19.85967 33976 ft 413 kts 215°
2026-05-04 14:36 21.62807 -19.88627 33979 ft 413 kts 215°
2026-05-04 14:36 21.57084 -19.92351 33971 ft 413 kts 215°
2026-05-04 14:37 21.52171 -19.95543 33960 ft 410 kts 215°
2026-05-04 14:37 21.48102 -19.98186 33971 ft 410 kts 215°
2026-05-04 14:38 21.43217 -20.01359 33972 ft 410 kts 215°
2026-05-04 14:38 21.38355 -20.04516 33970 ft 410 kts 215°
2026-05-04 14:39 21.33460 -20.07688 33968 ft 410 kts 215°
2026-05-04 14:39 21.28589 -20.10840 33969 ft 410 kts 215°
2026-05-04 14:40 21.21262 -20.15579 33972 ft 412 kts 215°
2026-05-04 14:40 21.16370 -20.18738 33962 ft 409 kts 215°
2026-05-04 14:41 21.11489 -20.21891 33978 ft 409 kts 215°
2026-05-04 14:42 21.01756 -20.28165 33971 ft 409 kts 215°
2026-05-04 14:42 20.96876 -20.31314 33974 ft 409 kts 215°
2026-05-04 14:43 20.91996 -20.34455 33973 ft 409 kts 215°
2026-05-04 14:43 20.87135 -20.37581 33974 ft 409 kts 214°
2026-05-04 14:44 20.82288 -20.40695 33967 ft 403 kts 214°
2026-05-04 14:44 20.77480 -20.43787 33968 ft 403 kts 214°
2026-05-04 14:45 20.72691 -20.46863 33968 ft 403 kts 214°
2026-05-04 14:45 20.67873 -20.49953 33972 ft 408 kts 214°
2026-05-04 14:46 20.62983 -20.53085 33970 ft 408 kts 214°
2026-05-04 14:46 20.58104 -20.56206 33968 ft 408 kts 214°
2026-05-04 14:47 20.53248 -20.59312 33969 ft 409 kts 214°
2026-05-04 14:47 20.48398 -20.62410 33964 ft 404 kts 214°
2026-05-04 14:48 20.43569 -20.65498 33969 ft 404 kts 214°
2026-05-04 14:48 20.38771 -20.68563 33968 ft 404 kts 214°
2026-05-04 14:49 20.33938 -20.71643 33966 ft 404 kts 214°
2026-05-04 14:49 20.29131 -20.74699 33970 ft 404 kts 214°
2026-05-04 14:50 20.24301 -20.77771 33971 ft 404 kts 214°
2026-05-04 14:50 20.19494 -20.80824 33980 ft 404 kts 214°
2026-05-04 14:51 20.14618 -20.83918 33972 ft 409 kts 214°
2026-05-04 14:51 20.09723 -20.87021 33970 ft 409 kts 214°
2026-05-04 14:52 20.04831 -20.90123 33974 ft 409 kts 214°
2026-05-04 14:52 19.99962 -20.93205 33973 ft 409 kts 214°
2026-05-04 14:53 19.95059 -20.96311 33971 ft 409 kts 214°
2026-05-04 14:53 19.90187 -20.99393 33971 ft 409 kts 214°
2026-05-04 14:54 19.85309 -21.02472 33971 ft 409 kts 214°
2026-05-04 14:54 19.80423 -21.05557 33977 ft 406 kts 214°
2026-05-04 14:55 19.75568 -21.08621 33970 ft 406 kts 214°
2026-05-04 14:55 19.70740 -21.11667 33970 ft 406 kts 214°
2026-05-04 14:56 19.65865 -21.14737 33987 ft 408 kts 214°
2026-05-04 14:56 19.60997 -21.17802 33984 ft 409 kts 214°
2026-05-04 14:57 19.56091 -21.20890 33977 ft 409 kts 214°
2026-05-04 14:57 19.51219 -21.23954 33978 ft 409 kts 214°
2026-05-04 14:58 19.46320 -21.27032 33968 ft 409 kts 214°
2026-05-04 14:58 19.41419 -21.30107 33973 ft 409 kts 214°
2026-05-04 14:59 19.36520 -21.33181 33978 ft 409 kts 214°
2026-05-04 15:00 19.29198 -21.37773 33984 ft 409 kts 214°
2026-05-04 15:00 19.24294 -21.40844 33986 ft 408 kts 214°
2026-05-04 15:01 19.16985 -21.45419 33981 ft 409 kts 214°
2026-05-04 15:01 19.12062 -21.48496 33976 ft 411 kts 214°
2026-05-04 15:02 19.07124 -21.51582 33980 ft 412 kts 214°
2026-05-04 15:02 19.02216 -21.54644 33985 ft 412 kts 214°
2026-05-04 15:03 18.97273 -21.57730 33985 ft 412 kts 214°
2026-05-04 15:03 18.92331 -21.60812 33985 ft 412 kts 214°
2026-05-04 15:04 18.87410 -21.63878 33979 ft 412 kts 214°
2026-05-04 15:04 18.82462 -21.66957 33981 ft 412 kts 214°
2026-05-04 15:05 18.77524 -21.70030 33975 ft 414 kts 214°
2026-05-04 15:05 18.72583 -21.73103 33983 ft 414 kts 214°
2026-05-04 15:06 18.67611 -21.76190 33986 ft 414 kts 214°
2026-05-04 15:07 18.60163 -21.80816 33993 ft 414 kts 214°
2026-05-04 15:07 18.55206 -21.83891 33986 ft 416 kts 214°
2026-05-04 15:08 18.50209 -21.86989 33982 ft 416 kts 214°
2026-05-04 15:08 18.45234 -21.90068 33969 ft 417 kts 214°
2026-05-04 15:09 18.40247 -21.93156 33977 ft 417 kts 214°
2026-05-04 15:09 18.35232 -21.96258 33981 ft 417 kts 214°
2026-05-04 15:10 18.27736 -22.00892 33982 ft 417 kts 214°
2026-05-04 15:11 18.20235 -22.05522 33985 ft 417 kts 214°
2026-05-04 15:11 18.15206 -22.08625 33986 ft 417 kts 214°
2026-05-04 15:12 18.10219 -22.11701 33975 ft 418 kts 214°
2026-05-04 15:12 18.05189 -22.14801 33982 ft 419 kts 214°
2026-05-04 15:13 18.00160 -22.17899 33982 ft 419 kts 214°
2026-05-04 15:13 17.95125 -22.20998 33979 ft 419 kts 214°
2026-05-04 15:14 17.90129 -22.24069 33982 ft 419 kts 214°
2026-05-04 15:14 17.85095 -22.27163 33983 ft 419 kts 214°
2026-05-04 15:15 17.80054 -22.30256 33979 ft 419 kts 214°
2026-05-04 15:15 17.75044 -22.33331 33977 ft 420 kts 214°
2026-05-04 15:16 17.67453 -22.37985 33982 ft 420 kts 214°
2026-05-04 15:17 17.59900 -22.42612 33976 ft 420 kts 214°
2026-05-04 15:17 17.52333 -22.47246 33983 ft 421 kts 214°
2026-05-04 15:18 17.47258 -22.50348 33985 ft 421 kts 214°
2026-05-04 15:19 17.39679 -22.54971 33972 ft 422 kts 214°
2026-05-04 15:19 17.32044 -22.59633 33979 ft 423 kts 214°
2026-05-04 15:20 17.26985 -22.62718 33980 ft 423 kts 214°
2026-05-04 15:20 17.21889 -22.65822 33979 ft 423 kts 214°
2026-05-04 15:21 17.16804 -22.68920 33981 ft 423 kts 214°
2026-05-04 15:22 17.09199 -22.73548 33985 ft 423 kts 214°
2026-05-04 15:22 17.01550 -22.78198 33984 ft 424 kts 215°
2026-05-04 15:23 16.96470 -22.81285 33982 ft 424 kts 215°
2026-05-04 15:23 16.91352 -22.84392 33982 ft 424 kts 215°
2026-05-04 15:24 16.81167 -22.90571 33991 ft 424 kts 215°
2026-05-04 15:25 16.76054 -22.93670 33994 ft 425 kts 215°
2026-05-04 15:26 16.68326 -22.98252 33990 ft 425 kts 214°
2026-05-04 15:26 16.60605 -23.02747 33992 ft 425 kts 214°
2026-05-04 15:27 16.52877 -23.07259 33988 ft 425 kts 214°
2026-05-04 15:28 16.45123 -23.11780 33992 ft 425 kts 214°
2026-05-04 15:29 16.37386 -23.16286 33970 ft 426 kts 214°
2026-05-04 15:30 16.20131 -23.26323 33979 ft 426 kts 214°
2026-05-04 15:31 16.12349 -23.30844 33981 ft 427 kts 214°
2026-05-04 15:32 15.99396 -23.38361 33975 ft 427 kts 215°
2026-05-04 15:34 15.86444 -23.45867 33973 ft 427 kts 215°
2026-05-04 15:34 15.78635 -23.50382 33976 ft 427 kts 215°
2026-05-04 15:35 15.70867 -23.54867 33977 ft 427 kts 215°
2026-05-04 15:36 15.63064 -23.59377 33970 ft 427 kts 215°
2026-05-04 15:36 15.57900 -23.62358 33973 ft 427 kts 215°
2026-05-04 15:37 15.52698 -23.65356 33976 ft 427 kts 215°
2026-05-04 15:37 15.47533 -23.68334 33976 ft 427 kts 215°
2026-05-04 15:38 15.42333 -23.71330 33973 ft 427 kts 215°
2026-05-04 15:38 15.37130 -23.74327 33974 ft 427 kts 215°
2026-05-04 15:39 15.31930 -23.77319 33966 ft 427 kts 216°
2026-05-04 15:40 15.24175 -23.81778 33970 ft 427 kts 216°
2026-05-04 15:40 15.18981 -23.84763 33971 ft 427 kts 216°
2026-05-04 15:41 15.13765 -23.87758 33971 ft 427 kts 216°
2026-05-04 15:41 15.08598 -23.90724 33969 ft 427 kts 216°
2026-05-04 15:42 14.98071 -23.96761 33961 ft 427 kts 216°
2026-05-04 15:43 14.92876 -23.99735 33963 ft 427 kts 216°
2026-05-04 15:43 14.87666 -24.02720 33964 ft 427 kts 216°
2026-05-04 15:44 14.82503 -24.05679 33966 ft 427 kts 216°
2026-05-04 15:44 14.77286 -24.08664 33966 ft 427 kts 216°
2026-05-04 15:45 14.72107 -24.11624 33963 ft 427 kts 216°
2026-05-04 15:45 14.66900 -24.14599 33968 ft 427 kts 216°
2026-05-04 15:46 14.61694 -24.17573 33963 ft 428 kts 216°
2026-05-04 15:46 14.56510 -24.20531 33961 ft 428 kts 216°
2026-05-04 15:47 14.51284 -24.23512 33961 ft 428 kts 216°
2026-05-04 15:47 14.46098 -24.26468 33962 ft 428 kts 216°
2026-05-04 15:48 14.40868 -24.29449 33958 ft 428 kts 216°
2026-05-04 15:48 14.33074 -24.33888 33959 ft 428 kts 216°
2026-05-04 15:49 14.27840 -24.36868 33949 ft 429 kts 216°
2026-05-04 15:49 14.22620 -24.39837 33961 ft 430 kts 216°
2026-05-04 15:50 14.17372 -24.42820 33958 ft 430 kts 216°
2026-05-04 15:50 14.12161 -24.45782 33956 ft 430 kts 216°
2026-05-04 15:51 14.06915 -24.48761 33956 ft 430 kts 216°
2026-05-04 15:51 14.01662 -24.51741 33959 ft 430 kts 216°
2026-05-04 15:52 13.96441 -24.54701 33956 ft 430 kts 216°
2026-05-04 15:52 13.91182 -24.57687 33952 ft 432 kts 216°
2026-05-04 15:53 13.85901 -24.60679 33954 ft 432 kts 216°
2026-05-04 15:53 13.80669 -24.63644 33955 ft 432 kts 216°
2026-05-04 15:54 13.75394 -24.66632 33958 ft 432 kts 216°
2026-05-04 15:54 13.70118 -24.69622 33955 ft 432 kts 216°
2026-05-04 15:55 13.64872 -24.72588 33953 ft 432 kts 216°
2026-05-04 15:55 13.59584 -24.75577 33944 ft 433 kts 216°
2026-05-04 15:56 13.54290 -24.78568 33954 ft 434 kts 216°
2026-05-04 15:56 13.49028 -24.81541 33954 ft 434 kts 216°
2026-05-04 15:57 13.43719 -24.84538 33958 ft 434 kts 216°
2026-05-04 15:57 13.38415 -24.87535 33958 ft 434 kts 216°
2026-05-04 15:58 13.33151 -24.90502 33955 ft 434 kts 216°
2026-05-04 15:58 13.27846 -24.93492 33955 ft 434 kts 216°
2026-05-04 15:59 13.22549 -24.96479 33955 ft 434 kts 216°
2026-05-04 15:59 13.17269 -24.99452 33951 ft 434 kts 216°
2026-05-04 16:00 13.11959 -25.02441 33961 ft 434 kts 216°
2026-05-04 16:00 13.06646 -25.05428 33959 ft 434 kts 216°
2026-05-04 16:01 13.01378 -25.08391 33951 ft 434 kts 216°
2026-05-04 16:01 12.96065 -25.11376 33949 ft 434 kts 216°
2026-05-04 16:02 12.90788 -25.14341 33941 ft 434 kts 216°
2026-05-04 16:03 12.82807 -25.18822 33949 ft 435 kts 216°
2026-05-04 16:03 12.77485 -25.21806 33947 ft 435 kts 216°
2026-05-04 16:04 12.72210 -25.24766 33949 ft 435 kts 216°
2026-05-04 16:04 12.64228 -25.29242 33946 ft 435 kts 216°
2026-05-04 16:05 12.58941 -25.32203 33949 ft 435 kts 216°
2026-05-04 16:06 12.50981 -25.36659 33956 ft 435 kts 215°
2026-05-04 16:07 12.40357 -25.42604 33949 ft 435 kts 215°
2026-05-04 16:08 12.29759 -25.48528 33950 ft 435 kts 215°
2026-05-04 16:09 12.16475 -25.55940 33945 ft 436 kts 214°
2026-05-04 16:10 12.06717 -25.61385 33950 ft 436 kts 215°
2026-05-04 16:11 11.96089 -25.67304 33941 ft 436 kts 215°
2026-05-04 16:12 11.80086 -25.76214 33939 ft 438 kts 214°
2026-05-04 16:13 11.69365 -25.82174 33951 ft 438 kts 214°
2026-05-04 16:14 11.58672 -25.88113 33935 ft 438 kts 214°
2026-05-04 16:16 11.45263 -25.95555 33948 ft 441 kts 214°
2026-05-04 16:17 11.31788 -26.03024 33944 ft 440 kts 214°
2026-05-04 16:18 11.21044 -26.08973 33944 ft 440 kts 214°
2026-05-04 16:19 11.07581 -26.16424 33944 ft 441 kts 214°
2026-05-04 16:20 10.94079 -26.23886 33941 ft 441 kts 214°
2026-05-04 16:22 10.80618 -26.31319 33936 ft 440 kts 213°
2026-05-04 16:23 10.64501 -26.40207 33943 ft 440 kts 213°
2026-05-04 16:25 10.48339 -26.49105 33939 ft 440 kts 214°
2026-05-04 16:26 10.29505 -26.59465 33938 ft 438 kts 212°
2026-05-04 16:28 10.16136 -26.66808 33938 ft 438 kts 212°
2026-05-04 16:29 9.97435 -26.77075 33941 ft 436 kts 211°
2026-05-04 16:31 9.84105 -26.84385 33936 ft 436 kts 211°
2026-05-04 16:32 9.68100 -26.93150 33939 ft 436 kts 211°
2026-05-04 16:33 9.57446 -26.98978 33937 ft 436 kts 211°
2026-05-04 16:34 9.49470 -27.03339 33936 ft 435 kts 211°
2026-05-04 16:35 9.33411 -27.12112 33936 ft 437 kts 210°
2026-05-04 16:36 9.25401 -27.16485 33935 ft 437 kts 210°
2026-05-04 16:37 9.17377 -27.20863 33935 ft 435 kts 210°
2026-05-04 16:38 9.06724 -27.26674 33932 ft 435 kts 210°
2026-05-04 16:39 8.93396 -27.33935 33932 ft 435 kts 210°
2026-05-04 16:40 8.82742 -27.39737 33932 ft 435 kts 210°
2026-05-04 16:41 8.69422 -27.46984 33929 ft 436 kts 210°
2026-05-04 16:43 8.56073 -27.54239 33933 ft 435 kts 210°
2026-05-04 16:43 8.48113 -27.58564 33928 ft 435 kts 210°
2026-05-04 16:45 8.32112 -27.67249 33932 ft 436 kts 210°
2026-05-04 16:46 8.18747 -27.74497 33926 ft 436 kts 210°
2026-05-04 16:47 8.08089 -27.80275 33929 ft 435 kts 210°
2026-05-04 16:48 7.97377 -27.86081 33931 ft 437 kts 210°
2026-05-04 16:49 7.86679 -27.91872 33928 ft 437 kts 210°
2026-05-04 16:50 7.75948 -27.97697 33932 ft 437 kts 210°
2026-05-04 16:51 7.67924 -28.02030 33922 ft 439 kts 209°
2026-05-04 16:52 7.57164 -28.07844 33927 ft 439 kts 209°
2026-05-04 16:53 7.49110 -28.12199 33923 ft 437 kts 209°
2026-05-04 16:54 7.38409 -28.17963 33922 ft 437 kts 209°
2026-05-04 16:55 7.22271 -28.26676 33921 ft 439 kts 208°
2026-05-04 16:56 7.08820 -28.33924 33922 ft 438 kts 208°
2026-05-04 16:57 7.00765 -28.38265 33918 ft 440 kts 208°
2026-05-04 16:58 6.89987 -28.44069 33921 ft 440 kts 208°
2026-05-04 17:00 6.74693 -28.52302 33921 ft 440 kts 208°
2026-05-04 17:01 6.61182 -28.59574 33919 ft 442 kts 208°
2026-05-04 17:02 6.50348 -28.65394 33924 ft 442 kts 208°
2026-05-04 17:03 6.42198 -28.69772 33922 ft 442 kts 208°
2026-05-04 17:03 6.34077 -28.74138 33918 ft 442 kts 208°
2026-05-04 17:04 6.23253 -28.79948 33926 ft 442 kts 208°
2026-05-04 17:05 6.12396 -28.85775 33917 ft 442 kts 208°
2026-05-04 17:06 6.04274 -28.90130 33925 ft 442 kts 208°
2026-05-04 17:07 5.97048 -28.94005 33920 ft 443 kts 208°
2026-05-04 17:07 5.90720 -28.97399 33915 ft 442 kts 208°
2026-05-04 17:08 5.82561 -29.01770 33921 ft 442 kts 208°
2026-05-04 17:09 5.77151 -29.04670 33917 ft 442 kts 208°
2026-05-04 17:09 5.71711 -29.07584 33915 ft 442 kts 208°
2026-05-04 17:10 5.58116 -29.14868 33923 ft 444 kts 207°
2026-05-04 17:11 5.52683 -29.17774 33914 ft 444 kts 207°
2026-05-04 17:12 5.44497 -29.22153 33915 ft 444 kts 207°
2026-05-04 17:13 5.30895 -29.29430 33917 ft 443 kts 207°
2026-05-04 17:14 5.20017 -29.35249 33924 ft 444 kts 207°
2026-05-04 17:15 5.11833 -29.39624 33930 ft 444 kts 207°
2026-05-04 17:16 5.00949 -29.45437 33921 ft 444 kts 207°
2026-05-04 17:17 4.90023 -29.51276 33923 ft 444 kts 207°
2026-05-04 17:18 4.79131 -29.57092 33919 ft 443 kts 207°
2026-05-04 17:19 4.68258 -29.62895 33926 ft 443 kts 207°
2026-05-04 17:20 4.57372 -29.68699 33923 ft 444 kts 207°
2026-05-04 17:20 4.49201 -29.73061 33925 ft 444 kts 207°
2026-05-04 17:21 4.38262 -29.78892 33922 ft 444 kts 207°
2026-05-04 17:22 4.32836 -29.81785 33927 ft 444 kts 207°
2026-05-04 17:23 4.21899 -29.87616 33922 ft 445 kts 207°
2026-05-04 17:24 4.13726 -29.91969 33925 ft 445 kts 207°
2026-05-04 17:25 4.02773 -29.97802 33928 ft 445 kts 207°
2026-05-04 17:26 3.91836 -30.03619 33920 ft 447 kts 206°
2026-05-04 17:27 3.78141 -30.10903 33923 ft 447 kts 206°
2026-05-04 17:28 3.67145 -30.16746 33921 ft 446 kts 207°
2026-05-04 17:29 3.50673 -30.25495 33923 ft 448 kts 206°
2026-05-04 17:31 3.36942 -30.32791 33917 ft 448 kts 206°
2026-05-04 17:32 3.23194 -30.40090 33917 ft 448 kts 206°
2026-05-04 17:33 3.12207 -30.45919 33922 ft 448 kts 206°
2026-05-04 17:34 3.01190 -30.51766 33920 ft 447 kts 206°
2026-05-04 17:35 2.87444 -30.59058 33919 ft 448 kts 206°
2026-05-04 17:36 2.81968 -30.61964 33924 ft 448 kts 206°
2026-05-04 17:36 2.76451 -30.64886 33914 ft 448 kts 206°
2026-05-04 17:37 2.70933 -30.67810 33914 ft 447 kts 206°
2026-05-04 17:37 2.65468 -30.70708 33916 ft 447 kts 206°
2026-05-04 17:38 2.59965 -30.73626 33918 ft 447 kts 206°
2026-05-04 17:38 2.54456 -30.76550 33920 ft 447 kts 206°
2026-05-04 17:39 2.46230 -30.80911 33918 ft 448 kts 206°
2026-05-04 17:39 2.40711 -30.83827 33920 ft 448 kts 206°
2026-05-04 17:40 2.35219 -30.86733 33920 ft 448 kts 206°
2026-05-04 17:40 2.29704 -30.89653 33923 ft 448 kts 206°
2026-05-04 17:41 2.24217 -30.92559 33923 ft 449 kts 206°
2026-05-04 17:41 2.18694 -30.95487 33917 ft 449 kts 206°
2026-05-04 17:42 2.13155 -30.98418 33919 ft 448 kts 206°
2026-05-04 17:42 2.07641 -31.01342 33924 ft 448 kts 206°
2026-05-04 17:43 2.02161 -31.04242 33919 ft 448 kts 206°
2026-05-04 17:43 1.96641 -31.07166 33916 ft 448 kts 206°
2026-05-04 17:44 1.91110 -31.10097 33926 ft 450 kts 206°
2026-05-04 17:44 1.85612 -31.13008 33917 ft 450 kts 206°
2026-05-04 17:45 1.80077 -31.15932 33921 ft 450 kts 206°
2026-05-04 17:45 1.74533 -31.18862 33927 ft 450 kts 206°
2026-05-04 17:46 1.68988 -31.21796 33924 ft 450 kts 206°
2026-05-04 17:46 1.63487 -31.24706 33924 ft 450 kts 206°
2026-05-04 17:47 1.57915 -31.27653 33921 ft 454 kts 206°
2026-05-04 17:47 1.52331 -31.30608 33924 ft 454 kts 206°
2026-05-04 17:48 1.47682 -31.33067 33919 ft 454 kts 206°
2026-05-04 17:48 1.41185 -31.36506 33920 ft 454 kts 206°
2026-05-04 17:49 1.36503 -31.38984 33925 ft 454 kts 206°
2026-05-04 17:49 1.30946 -31.41922 33926 ft 454 kts 206°
2026-05-04 17:50 1.25297 -31.44910 33920 ft 459 kts 206°
2026-05-04 17:50 1.19678 -31.47881 33921 ft 459 kts 206°
2026-05-04 17:51 1.14019 -31.50874 33920 ft 459 kts 206°
2026-05-04 17:51 1.08396 -31.53849 33922 ft 458 kts 206°
2026-05-04 17:52 1.02752 -31.56833 33921 ft 458 kts 206°
2026-05-04 17:52 0.97108 -31.59820 33916 ft 459 kts 206°
2026-05-04 17:53 0.91443 -31.62813 33917 ft 460 kts 206°
2026-05-04 17:53 0.85774 -31.65809 33916 ft 460 kts 206°
2026-05-04 17:54 0.80128 -31.68792 33923 ft 461 kts 206°
2026-05-04 17:54 0.74484 -31.71780 33923 ft 461 kts 206°
2026-05-04 17:55 0.68808 -31.74781 33918 ft 461 kts 206°
2026-05-04 17:55 0.63130 -31.77783 33918 ft 463 kts 206°
2026-05-04 17:56 0.57426 -31.80799 33922 ft 463 kts 206°
2026-05-04 17:56 0.51768 -31.83790 33920 ft 463 kts 206°
2026-05-04 17:57 0.46062 -31.86807 33922 ft 463 kts 206°
2026-05-04 17:57 0.40371 -31.89816 33920 ft 463 kts 206°
2026-05-04 17:58 0.34705 -31.92812 33922 ft 462 kts 206°
2026-05-04 17:58 0.29005 -31.95826 33922 ft 464 kts 206°
2026-05-04 17:59 0.23286 -31.98855 33927 ft 465 kts 206°
2026-05-04 18:00 0.14730 -32.03379 33918 ft 465 kts 206°
2026-05-04 18:00 0.09011 -32.06406 33926 ft 465 kts 206°
2026-05-04 18:01 0.03290 -32.09430 33925 ft 465 kts 206°
2026-05-04 18:01 -0.02393 -32.12435 33920 ft 464 kts 206°
2026-05-04 18:02 -0.10954 -32.16960 33920 ft 462 kts 206°
2026-05-04 18:02 -0.16587 -32.19939 33918 ft 462 kts 206°
2026-05-04 18:03 -0.22287 -32.22954 33919 ft 462 kts 206°
2026-05-04 18:03 -0.27954 -32.25948 33921 ft 462 kts 206°
2026-05-04 18:04 -0.33648 -32.28962 33919 ft 462 kts 206°
2026-05-04 18:05 -0.42161 -32.33464 33924 ft 462 kts 206°
2026-05-04 18:05 -0.47854 -32.36477 33920 ft 463 kts 206°
2026-05-04 18:06 -0.56416 -32.41004 33919 ft 463 kts 206°
2026-05-04 18:06 -0.62072 -32.43997 33922 ft 463 kts 206°
2026-05-04 18:07 -0.67768 -32.47009 33919 ft 463 kts 206°
2026-05-04 18:07 -0.73474 -32.50028 33920 ft 463 kts 206°
2026-05-04 18:08 -0.79143 -32.53028 33919 ft 463 kts 206°
2026-05-04 18:08 -0.84838 -32.56041 33919 ft 463 kts 206°
2026-05-04 18:09 -0.96204 -32.62055 33918 ft 464 kts 206°
2026-05-04 18:10 -1.01941 -32.65090 33920 ft 466 kts 206°
2026-05-04 18:10 -1.07642 -32.68107 33920 ft 467 kts 207°
2026-05-04 18:11 -1.13371 -32.71139 33924 ft 467 kts 206°
2026-05-04 18:11 -1.19113 -32.74176 33922 ft 465 kts 206°
2026-05-04 18:12 -1.24830 -32.77201 33920 ft 465 kts 206°
2026-05-04 18:12 -1.30531 -32.80220 33918 ft 466 kts 207°
2026-05-04 18:13 -1.36278 -32.83261 34023 ft 468 kts 207°
2026-05-04 18:13 -1.42043 -32.86314 34426 ft 468 kts 207°
2026-05-04 18:14 -1.44923 -32.87842 34649 ft 467 kts 207°
2026-05-04 18:14 -1.47790 -32.89362 34875 ft 466 kts 207°
2026-05-04 18:14 -1.50655 -32.90880 35106 ft 465 kts 207°
2026-05-04 18:15 -1.56334 -32.93890 35574 ft 462 kts 207°
2026-05-04 18:15 -1.61990 -32.96890 35938 ft 462 kts 207°
2026-05-04 18:16 -1.67713 -32.99920 35940 ft 464 kts 207°
2026-05-04 18:16 -1.73422 -33.02949 35926 ft 464 kts 207°
2026-05-04 18:17 -1.81966 -33.07477 35921 ft 464 kts 207°
2026-05-04 18:18 -1.90505 -33.12004 35925 ft 464 kts 207°
2026-05-04 18:18 -1.96177 -33.15014 35922 ft 462 kts 207°
2026-05-04 18:19 -2.04696 -33.19530 35921 ft 461 kts 207°
2026-05-04 18:19 -2.10344 -33.22528 35919 ft 460 kts 207°
2026-05-04 18:20 -2.16012 -33.25532 35924 ft 460 kts 207°
2026-05-04 18:20 -2.21683 -33.28543 35924 ft 460 kts 207°
2026-05-04 18:21 -2.27313 -33.31530 35920 ft 460 kts 207°
2026-05-04 18:21 -2.32997 -33.34543 35921 ft 460 kts 207°
2026-05-04 18:22 -2.38632 -33.37536 35922 ft 461 kts 207°
2026-05-04 18:22 -2.44302 -33.40547 35918 ft 461 kts 207°
2026-05-04 18:23 -2.49940 -33.43541 35921 ft 460 kts 207°
2026-05-04 18:23 -2.55627 -33.46558 35919 ft 462 kts 207°
2026-05-04 18:24 -2.61315 -33.49577 35917 ft 463 kts 207°
2026-05-04 18:24 -2.66965 -33.52574 35917 ft 462 kts 207°
2026-05-04 18:25 -2.72665 -33.55586 35918 ft 462 kts 207°
2026-05-04 18:25 -2.78364 -33.58601 35918 ft 463 kts 207°
2026-05-04 18:26 -2.84054 -33.61612 35922 ft 462 kts 207°
2026-05-04 18:26 -2.89715 -33.64605 35921 ft 460 kts 208°
2026-05-04 18:27 -2.95403 -33.67614 35918 ft 461 kts 208°
2026-05-04 18:27 -3.01051 -33.70604 35918 ft 462 kts 208°
2026-05-04 18:28 -3.06737 -33.73614 35915 ft 461 kts 208°
2026-05-04 18:28 -3.12395 -33.76612 35918 ft 462 kts 208°
2026-05-04 18:29 -3.18086 -33.79624 35922 ft 462 kts 208°
2026-05-04 18:29 -3.23765 -33.82631 35915 ft 461 kts 208°
2026-05-04 18:30 -3.32233 -33.87115 35921 ft 461 kts 208°
2026-05-04 18:31 -3.37905 -33.90120 35919 ft 461 kts 208°
2026-05-04 18:31 -3.43584 -33.93128 35918 ft 462 kts 208°
2026-05-04 18:32 -3.49261 -33.96136 35917 ft 461 kts 208°
2026-05-04 18:32 -3.54902 -33.99126 35918 ft 461 kts 208°
2026-05-04 18:33 -3.60601 -34.02116 35920 ft 461 kts 206°
2026-05-04 18:33 -3.63609 -34.03229 35914 ft 461 kts 194°
2026-05-04 18:33 -3.66761 -34.03687 35919 ft 462 kts 182°
2026-05-04 18:34 -3.73191 -34.03685 35919 ft 462 kts 180°
2026-05-04 18:34 -3.79624 -34.03650 35915 ft 462 kts 180°
2026-05-04 18:35 -3.86049 -34.03650 35921 ft 462 kts 181°
2026-05-04 18:35 -3.92450 -34.03654 35921 ft 460 kts 181°
2026-05-04 18:36 -3.98889 -34.03656 35917 ft 462 kts 181°
2026-05-04 18:36 -4.05320 -34.03658 35917 ft 461 kts 181°
2026-05-04 18:37 -4.11727 -34.03662 35922 ft 462 kts 181°
2026-05-04 18:37 -4.17077 -34.03666 35923 ft 461 kts 181°
2026-05-04 18:38 -4.24536 -34.03669 35925 ft 461 kts 181°
2026-05-04 18:38 -4.29885 -34.03669 35917 ft 461 kts 181°
2026-05-04 18:39 -4.36326 -34.03670 35916 ft 461 kts 181°
2026-05-04 18:39 -4.42716 -34.03671 35919 ft 461 kts 182°
2026-05-04 18:40 -4.49130 -34.03679 35920 ft 459 kts 182°
2026-05-04 18:40 -4.55546 -34.03686 35919 ft 461 kts 181°
2026-05-04 18:41 -4.61955 -34.03686 35922 ft 459 kts 182°
2026-05-04 18:41 -4.68324 -34.03683 35920 ft 460 kts 181°
2026-05-04 18:42 -4.74749 -34.03686 35923 ft 460 kts 182°
2026-05-04 18:42 -4.81111 -34.03688 35921 ft 460 kts 182°
2026-05-04 18:43 -4.87529 -34.03697 35920 ft 460 kts 182°
2026-05-04 18:43 -4.93949 -34.03701 35921 ft 460 kts 182°
2026-05-04 18:44 -5.00318 -34.03701 35922 ft 460 kts 182°
2026-05-04 18:44 -5.06739 -34.03708 35921 ft 460 kts 182°
2026-05-04 18:45 -5.13110 -34.03702 35920 ft 461 kts 182°
2026-05-04 18:45 -5.19529 -34.03706 35926 ft 460 kts 182°
2026-05-04 18:46 -5.25947 -34.03710 35927 ft 460 kts 182°
2026-05-04 18:46 -5.32326 -34.03708 35926 ft 460 kts 182°
2026-05-04 18:47 -5.38742 -34.03711 35925 ft 460 kts 182°
2026-05-04 18:47 -5.45148 -34.03717 35922 ft 460 kts 182°
2026-05-04 18:48 -5.51548 -34.03726 35927 ft 459 kts 182°
2026-05-04 18:48 -5.57918 -34.03719 35930 ft 459 kts 182°
2026-05-04 18:49 -5.64325 -34.03722 35928 ft 459 kts 182°
2026-05-04 18:49 -5.70700 -34.03724 35932 ft 459 kts 182°
2026-05-04 18:50 -5.77106 -34.03732 35929 ft 459 kts 182°
2026-05-04 18:50 -5.83472 -34.03737 35933 ft 459 kts 182°
2026-05-04 18:51 -5.89877 -34.03737 35932 ft 459 kts 182°
2026-05-04 18:51 -5.96292 -34.03738 35933 ft 459 kts 182°
2026-05-04 18:52 -6.02686 -34.03742 35933 ft 459 kts 182°
2026-05-04 18:52 -6.09047 -34.03740 35932 ft 459 kts 182°
2026-05-04 18:53 -6.15455 -34.03745 35935 ft 459 kts 183°
2026-05-04 18:53 -6.21833 -34.03742 35936 ft 459 kts 182°
2026-05-04 18:54 -6.28236 -34.03746 35933 ft 459 kts 182°
2026-05-04 18:54 -6.34634 -34.03751 35933 ft 459 kts 183°
2026-05-04 18:55 -6.40986 -34.03757 35934 ft 459 kts 183°
2026-05-04 18:55 -6.50581 -34.03760 35935 ft 459 kts 183°
2026-05-04 18:56 -6.56979 -34.03759 35940 ft 459 kts 183°
2026-05-04 18:56 -6.63232 -34.04699 35939 ft 452 kts 202°
2026-05-04 18:57 -6.66026 -34.06039 35941 ft 449 kts 213°
2026-05-04 18:57 -6.68629 -34.07777 35947 ft 449 kts 217°
2026-05-04 18:57 -6.73763 -34.11366 35941 ft 449 kts 216°
2026-05-04 18:58 -6.78945 -34.14912 35941 ft 449 kts 216°
2026-05-04 18:58 -6.84107 -34.18428 35943 ft 449 kts 216°
2026-05-04 18:59 -6.89250 -34.21947 35944 ft 449 kts 216°
2026-05-04 18:59 -6.94418 -34.25489 35945 ft 448 kts 216°
2026-05-04 19:00 -6.99587 -34.29032 35947 ft 448 kts 216°
2026-05-04 19:00 -7.04722 -34.32540 35950 ft 448 kts 216°
2026-05-04 19:01 -7.09890 -34.36065 35947 ft 448 kts 216°
2026-05-04 19:01 -7.15070 -34.39607 35949 ft 448 kts 216°
2026-05-04 19:02 -7.20239 -34.43146 35947 ft 448 kts 216°
2026-05-04 19:02 -7.25378 -34.46667 35947 ft 449 kts 217°
2026-05-04 19:03 -7.30557 -34.50211 35953 ft 449 kts 217°
2026-05-04 19:03 -7.35711 -34.53738 35951 ft 445 kts 217°
2026-05-04 19:04 -7.40793 -34.57219 35954 ft 444 kts 217°
2026-05-04 19:04 -7.45916 -34.60731 35953 ft 444 kts 217°
2026-05-04 19:05 -7.50998 -34.64217 35955 ft 444 kts 217°
2026-05-04 19:05 -7.56116 -34.67721 35953 ft 444 kts 217°
2026-05-04 19:06 -7.61229 -34.71235 35953 ft 444 kts 217°
2026-05-04 19:06 -7.66327 -34.74735 35960 ft 446 kts 217°
2026-05-04 19:07 -7.71444 -34.78245 35958 ft 446 kts 217°
2026-05-04 19:07 -7.76589 -34.81773 35958 ft 447 kts 217°
2026-05-04 19:08 -7.81742 -34.85310 35961 ft 447 kts 217°
2026-05-04 19:08 -7.86857 -34.88827 35963 ft 447 kts 217°
2026-05-04 19:09 -7.91999 -34.92362 35966 ft 447 kts 217°
2026-05-04 19:09 -7.97118 -34.95886 35962 ft 436 kts 217°
2026-05-04 19:10 -7.99571 -34.97577 35946 ft 418 kts 218°
2026-05-04 19:10 -8.01590 -34.99564 35932 ft 400 kts 236°
2026-05-04 19:10 -8.02840 -35.02034 35943 ft 394 kts 253°
2026-05-04 19:10 -8.03313 -35.04716 35956 ft 393 kts 268°
2026-05-04 19:11 -8.03095 -35.07463 35964 ft 395 kts 281°
2026-05-04 19:11 -8.02206 -35.10086 35964 ft 398 kts 295°
2026-05-04 19:11 -8.00652 -35.12411 35964 ft 402 kts 310°
2026-05-04 19:11 -7.98518 -35.14250 35965 ft 407 kts 325°
2026-05-04 19:12 -7.95929 -35.15459 35967 ft 414 kts 341°
2026-05-04 19:12 -7.90148 -35.15685 35967 ft 430 kts
2026-05-04 19:12 -7.87318 -35.14649 35967 ft 437 kts 27°
2026-05-04 19:13 -7.84750 -35.12975 35974 ft 439 kts 33°
2026-05-04 19:13 -7.79804 -35.09344 35963 ft 439 kts 33°
2026-05-04 19:14 -7.74807 -35.05814 35959 ft 437 kts 33°
2026-05-04 19:14 -7.70299 -35.01730 35948 ft 440 kts 53°
2026-05-04 19:14 -7.68876 -34.99045 35947 ft 443 kts 70°
2026-05-04 19:15 -7.68265 -34.96005 35955 ft 444 kts 88°
2026-05-04 19:15 -7.68553 -34.92922 35959 ft 442 kts 106°
2026-05-04 19:15 -7.69686 -34.90032 35964 ft 443 kts 122°
2026-05-04 19:15 -7.71558 -34.87593 35961 ft 437 kts 140°
2026-05-04 19:16 -7.74014 -34.85849 35963 ft 430 kts 158°
2026-05-04 19:16 -7.76793 -34.84942 35963 ft 422 kts 175°
2026-05-04 19:16 -7.79694 -34.84924 35965 ft 413 kts 193°
2026-05-04 19:16 -7.82422 -34.85759 35964 ft 407 kts 208°
2026-05-04 19:17 -7.84840 -34.87222 35971 ft 404 kts 218°
2026-05-04 19:17 -7.89416 -34.90539 35965 ft 405 kts 218°
2026-05-04 19:18 -7.93992 -34.93735 35965 ft 401 kts 217°
2026-05-04 19:18 -7.98620 -34.96911 35968 ft 404 kts 217°
2026-05-04 19:18 -8.00811 -34.98673 35958 ft 399 kts 230°
2026-05-04 19:19 -8.02325 -35.00937 35958 ft 393 kts 246°
2026-05-04 19:19 -8.03133 -35.03560 35962 ft 392 kts 261°
2026-05-04 19:19 -8.03240 -35.06307 35965 ft 394 kts 275°
2026-05-04 19:19 -8.02642 -35.09005 35966 ft 396 kts 289°
2026-05-04 19:20 -8.01351 -35.11475 35968 ft 399 kts 304°
2026-05-04 19:20 -7.99440 -35.13528 35968 ft 404 kts 319°
2026-05-04 19:20 -7.97020 -35.15003 35970 ft 410 kts 334°
2026-05-04 19:20 -7.94250 -35.15760 35969 ft 417 kts 351°
2026-05-04 19:21 -7.91365 -35.15716 35967 ft 424 kts
2026-05-04 19:21 -7.88536 -35.14834 35970 ft 430 kts 24°
2026-05-04 19:21 -7.85962 -35.13243 35976 ft 436 kts 31°
2026-05-04 19:22 -7.80867 -35.09890 35973 ft 437 kts 31°
2026-05-04 19:22 -7.75833 -35.06497 35963 ft 436 kts 31°
2026-05-04 19:23 -7.71100 -35.02671 35956 ft 438 kts 46°
2026-05-04 19:23 -7.69372 -35.00130 35953 ft 441 kts 64°
2026-05-04 19:23 -7.68434 -34.97189 35957 ft 443 kts 81°
2026-05-04 19:23 -7.68383 -34.94090 35960 ft 441 kts 99°
2026-05-04 19:24 -7.69225 -34.91136 35964 ft 438 kts 117°
2026-05-04 19:24 -7.70854 -34.88607 35965 ft 435 kts 135°
2026-05-04 19:24 -7.73149 -34.86631 35970 ft 432 kts 152°
2026-05-04 19:24 -7.75865 -34.85417 35969 ft 424 kts 169°
2026-05-04 19:25 -7.78718 -34.85073 35970 ft 416 kts 186°
2026-05-04 19:25 -7.81539 -34.85561 35970 ft 409 kts 202°
2026-05-04 19:25 -7.84090 -34.86792 35971 ft 404 kts 215°
2026-05-04 19:26 -7.88671 -34.90019 35970 ft 404 kts 218°
2026-05-04 19:26 -7.92507 -34.92712 35967 ft 404 kts 217°
2026-05-04 19:27 -7.97130 -34.95888 35966 ft 400 kts 217°
2026-05-04 19:27 -8.01395 -34.99409 35957 ft 394 kts 236°
2026-05-04 19:27 -8.02665 -35.01855 35963 ft 393 kts 252°
2026-05-04 19:28 -8.03225 -35.04511 35968 ft 394 kts 266°
2026-05-04 19:28 -8.03131 -35.07291 35970 ft 398 kts 279°
2026-05-04 19:28 -8.02335 -35.09966 35969 ft 401 kts 293°
2026-05-04 19:28 -8.00859 -35.12368 35968 ft 405 kts 308°
2026-05-04 19:29 -7.98751 -35.14245 35963 ft 407 kts 326°
2026-05-04 19:29 -7.96139 -35.15401 35971 ft 413 kts 342°
2026-05-04 19:29 -7.93315 -35.15807 35971 ft 419 kts 357°
2026-05-04 19:29 -7.90403 -35.15432 35973 ft 425 kts 13°
2026-05-04 19:30 -7.87670 -35.14241 35973 ft 431 kts 29°
2026-05-04 19:30 -7.82571 -35.10955 35978 ft 436 kts 30°
2026-05-04 19:31 -7.77522 -35.07593 35970 ft 435 kts 33°
2026-05-04 19:31 -7.72696 -35.03899 35963 ft 434 kts 37°
2026-05-04 19:31 -7.70570 -35.01719 35957 ft 438 kts 52°
2026-05-04 19:32 -7.69087 -34.99082 35958 ft 441 kts 69°
2026-05-04 19:32 -7.68409 -34.96073 35960 ft 441 kts 87°
2026-05-04 19:32 -7.68633 -34.92994 35967 ft 440 kts 105°
2026-05-04 19:32 -7.69735 -34.90128 35970 ft 440 kts 123°
2026-05-04 19:33 -7.71602 -34.87711 35967 ft 435 kts 140°
2026-05-04 19:33 -7.74053 -34.85981 35969 ft 426 kts 158°
2026-05-04 19:33 -7.76801 -34.85104 35967 ft 416 kts 176°
2026-05-04 19:33 -7.79689 -34.85108 35975 ft 409 kts 192°
2026-05-04 19:34 -7.82420 -34.85892 35976 ft 406 kts 207°
2026-05-04 19:34 -7.87131 -34.88881 35975 ft 403 kts 218°
2026-05-04 19:35 -7.91702 -34.92153 35967 ft 400 kts 217°
2026-05-04 19:35 -7.96288 -34.95322 35967 ft 398 kts 217°
2026-05-04 19:36 -8.00722 -34.98607 35958 ft 395 kts 230°
2026-05-04 19:36 -8.02260 -35.00881 35964 ft 393 kts 246°
2026-05-04 19:36 -8.03101 -35.03499 35969 ft 393 kts 260°
2026-05-04 19:36 -8.03275 -35.06260 35972 ft 397 kts 274°
2026-05-04 19:37 -8.02734 -35.08990 35972 ft 399 kts 288°
2026-05-04 19:37 -8.01483 -35.11443 35965 ft 400 kts 305°
2026-05-04 19:37 -7.99529 -35.13448 35969 ft 404 kts 320°
2026-05-04 19:37 -7.97088 -35.14885 35973 ft 409 kts 335°
2026-05-04 19:38 -7.94312 -35.15623 35976 ft 415 kts 351°
2026-05-04 19:38 -7.91407 -35.15547 35975 ft 421 kts
2026-05-04 19:38 -7.88636 -35.14649 35975 ft 427 kts 25°
2026-05-04 19:39 -7.83543 -35.11390 35986 ft 435 kts 30°
2026-05-04 19:39 -7.78447 -35.08068 35976 ft 435 kts 31°
2026-05-04 19:40 -7.73500 -35.04632 35967 ft 433 kts 35°
2026-05-04 19:40 -7.71242 -35.02607 35961 ft 436 kts 47°
2026-05-04 19:40 -7.69539 -35.00061 35960 ft 439 kts 64°
2026-05-04 19:40 -7.68614 -34.97129 35963 ft 440 kts 82°
2026-05-04 19:41 -7.68576 -34.94058 35973 ft 441 kts 99°
2026-05-04 19:41 -7.69366 -34.91067 35975 ft 443 kts 115°
2026-05-04 19:41 -7.70929 -34.88424 35974 ft 438 kts 133°
2026-05-04 19:41 -7.73138 -34.86401 35975 ft 432 kts 150°
2026-05-04 19:42 -7.75827 -34.85135 35973 ft 422 kts 168°
2026-05-04 19:42 -7.78690 -34.84760 35969 ft 411 kts 186°
2026-05-04 19:42 -7.81464 -34.85291 35974 ft 404 kts 204°
2026-05-04 19:42 -7.83933 -34.86558 35978 ft 402 kts 216°
2026-05-04 19:43 -7.86210 -34.88201 35985 ft 402 kts 219°
2026-05-04 19:43 -7.90760 -34.91491 35972 ft 402 kts 217°
2026-05-04 19:44 -7.95378 -34.94690 35967 ft 399 kts 217°
2026-05-04 19:44 -7.99913 -34.97840 35962 ft 396 kts 223°
2026-05-04 19:44 -8.01725 -34.99901 35964 ft 393 kts 239°
2026-05-04 19:45 -8.02839 -35.02402 35965 ft 391 kts 255°
2026-05-04 19:45 -8.03232 -35.05112 35967 ft 391 kts 270°
2026-05-04 19:45 -8.02899 -35.07840 35970 ft 393 kts 284°
2026-05-04 19:45 -8.01868 -35.10394 35971 ft 396 kts 298°
2026-05-04 19:46 -8.00211 -35.12577 35973 ft 400 kts 313°
2026-05-04 19:46 -7.97978 -35.14275 35974 ft 405 kts 329°
2026-05-04 19:46 -7.95326 -35.15292 35983 ft 413 kts 345°
2026-05-04 19:46 -7.92443 -35.15637 35985 ft 422 kts 357°
2026-05-04 19:47 -7.89520 -35.15233 35982 ft 428 kts 15°
2026-05-04 19:47 -7.86833 -35.13983 35984 ft 434 kts 30°
2026-05-04 19:47 -7.84304 -35.12239 35987 ft 435 kts 33°
2026-05-04 19:48 -7.79398 -35.08715 35979 ft 435 kts 33°
2026-05-04 19:48 -7.74499 -35.05154 35971 ft 432 kts 35°
2026-05-04 19:49 -7.70205 -35.00922 35962 ft 437 kts 57°
2026-05-04 19:49 -7.68959 -34.98128 35965 ft 439 kts 75°
2026-05-04 19:49 -7.68576 -34.95115 35968 ft 439 kts 92°
2026-05-04 19:49 -7.69087 -34.92088 35973 ft 438 kts 111°
2026-05-04 19:50 -7.70448 -34.89364 35976 ft 433 kts 129°
2026-05-04 19:50 -7.72532 -34.87176 35982 ft 432 kts 146°
2026-05-04 19:50 -7.75123 -34.85705 35980 ft 425 kts 164°
2026-05-04 19:50 -7.77983 -34.85097 35979 ft 417 kts 181°
2026-05-04 19:51 -7.80802 -34.85359 35979 ft 409 kts 197°
2026-05-04 19:51 -7.83436 -34.86385 35977 ft 403 kts 212°
2026-05-04 19:51 -7.85798 -34.87901 35982 ft 402 kts 217°
2026-05-04 19:52 -7.90347 -34.91181 35974 ft 402 kts 217°
2026-05-04 19:52 -7.94914 -34.94362 35967 ft 398 kts 217°
2026-05-04 19:53 -7.99489 -34.97504 35966 ft 396 kts 218°
2026-05-04 19:53 -8.01436 -34.99435 35962 ft 392 kts 236°
2026-05-04 19:53 -8.02679 -35.01868 35966 ft 390 kts 252°
2026-05-04 19:53 -8.03205 -35.04553 35969 ft 391 kts 267°
2026-05-04 19:54 -8.03028 -35.07264 35976 ft 396 kts 279°
2026-05-04 19:54 -8.02214 -35.09923 35976 ft 399 kts 294°
2026-05-04 19:54 -8.00714 -35.12281 35972 ft 401 kts 310°
2026-05-04 19:54 -7.98556 -35.14062 35975 ft 405 kts 327°
2026-05-04 19:55 -7.95950 -35.15166 35980 ft 411 kts 343°
2026-05-04 19:55 -7.93091 -35.15567 35985 ft 420 kts 355°
2026-05-04 19:55 -7.90165 -35.15325 35984 ft 426 kts 11°
2026-05-04 19:55 -7.87409 -35.14226 35980 ft 428 kts 29°
2026-05-04 19:56 -7.84990 -35.12439 35987 ft 433 kts 36°
2026-05-04 19:56 -7.80086 -35.08961 35985 ft 433 kts 31°
2026-05-04 19:57 -7.75082 -35.05568 35971 ft 432 kts 33°
2026-05-04 19:57 -7.70617 -35.01510 35962 ft 435 kts 54°
2026-05-04 19:57 -7.69239 -34.98837 35963 ft 438 kts 71°
2026-05-04 19:58 -7.68673 -34.95828 35973 ft 439 kts 89°
2026-05-04 19:58 -7.69010 -34.92780 35977 ft 437 kts 107°
2026-05-04 19:58 -7.70211 -34.89989 35978 ft 434 kts 125°
2026-05-04 19:58 -7.72168 -34.87681 35986 ft 432 kts 142°
2026-05-04 19:59 -7.74660 -34.86025 35982 ft 426 kts 160°
2026-05-04 19:59 -7.77433 -34.85221 35980 ft 418 kts 177°
2026-05-04 19:59 -7.80305 -34.85293 35985 ft 410 kts 194°
2026-05-04 19:59 -7.82999 -34.86164 35978 ft 404 kts 209°
2026-05-04 20:00 -7.85385 -34.87642 35985 ft 401 kts 217°
2026-05-04 20:00 -7.89943 -34.90911 35978 ft 402 kts 217°
2026-05-04 20:01 -7.94519 -34.94095 35973 ft 402 kts 217°
2026-05-04 20:01 -7.99118 -34.97247 35969 ft 399 kts 217°
2026-05-04 20:01 -8.01162 -34.99098 35958 ft 392 kts 234°
2026-05-04 20:02 -8.02511 -35.01472 35966 ft 390 kts 250°
2026-05-04 20:02 -8.03145 -35.04129 35969 ft 390 kts 264°
2026-05-04 20:02 -8.03070 -35.06819 35973 ft 391 kts 279°
2026-05-04 20:02 -8.02305 -35.09472 35978 ft 397 kts 291°
2026-05-04 20:03 -8.00927 -35.11898 35978 ft 402 kts 306°
2026-05-04 20:03 -7.98924 -35.13882 35981 ft 407 kts 322°
2026-05-04 20:03 -7.96410 -35.15235 35984 ft 413 kts 338°
2026-05-04 20:03 -7.93590 -35.15803 35979 ft 417 kts 355°
2026-05-04 20:04 -7.90696 -35.15470 35982 ft 421 kts 14°
2026-05-04 20:04 -7.88011 -35.14258 35986 ft 426 kts 30°
2026-05-04 20:04 -7.85510 -35.12595 35994 ft 432 kts 31°
2026-05-04 20:05 -7.80484 -35.09298 35989 ft 434 kts 31°
2026-05-04 20:05 -7.75496 -35.05859 35982 ft 432 kts 33°
2026-05-04 20:06 -7.70985 -35.01930 35971 ft 434 kts 51°
2026-05-04 20:06 -7.69466 -34.99301 35971 ft 436 kts 69°
2026-05-04 20:06 -7.68768 -34.96327 35976 ft 438 kts 86°
2026-05-04 20:06 -7.68966 -34.93274 35980 ft 436 kts 104°
2026-05-04 20:07 -7.70043 -34.90425 35983 ft 433 kts 123°
2026-05-04 20:07 -7.71883 -34.88058 35987 ft 430 kts 140°
2026-05-04 20:07 -7.74286 -34.86287 35988 ft 426 kts 156°
2026-05-04 20:07 -7.77023 -34.85339 35987 ft 418 kts 174°
2026-05-04 20:08 -7.79907 -34.85268 35989 ft 411 kts 191°
2026-05-04 20:08 -7.82634 -34.86016 35982 ft 404 kts 207°
2026-05-04 20:08 -7.85059 -34.87422 35987 ft 401 kts 217°
2026-05-04 20:09 -7.89608 -34.90670 35980 ft 400 kts 217°
2026-05-04 20:09 -7.94179 -34.93858 35972 ft 397 kts 217°
2026-05-04 20:10 -7.98721 -34.96977 35970 ft 398 kts 216°
2026-05-04 20:10 -8.00854 -34.98743 35960 ft 393 kts 231°
2026-05-04 20:10 -8.02317 -35.01043 35964 ft 390 kts 248°
2026-05-04 20:10 -8.03064 -35.03661 35968 ft 389 kts 262°
2026-05-04 20:11 -8.03094 -35.06387 35971 ft 390 kts 277°
2026-05-04 20:11 -8.02415 -35.09040 35976 ft 394 kts 290°
2026-05-04 20:11 -8.01151 -35.11463 35982 ft 400 kts 303°
2026-05-04 20:11 -7.99245 -35.13526 35984 ft 405 kts 319°
2026-05-04 20:12 -7.96812 -35.14981 35984 ft 410 kts 335°
2026-05-04 20:12 -7.94036 -35.15644 35984 ft 414 kts 354°
2026-05-04 20:12 -7.91154 -35.15404 35987 ft 420 kts 12°
2026-05-04 20:12 -7.88428 -35.14324 35987 ft 425 kts 28°
2026-05-04 20:13 -7.85930 -35.12671 35996 ft 431 kts 31°
2026-05-04 20:13 -7.80831 -35.09442 35991 ft 433 kts 31°
2026-05-04 20:14 -7.75850 -35.06088 35981 ft 431 kts 32°
2026-05-04 20:14 -7.71961 -35.02931 35977 ft 432 kts 44°
2026-05-04 20:14 -7.70151 -35.00518 35976 ft 434 kts 60°
2026-05-04 20:15 -7.69065 -34.97670 35976 ft 436 kts 78°
2026-05-04 20:15 -7.68982 -34.93645 35986 ft 436 kts 102°
2026-05-04 20:15 -7.69544 -34.91664 35985 ft 435 kts 114°
2026-05-04 20:15 -7.71054 -34.89033 35994 ft 435 kts 130°
2026-05-04 20:16 -7.73174 -34.86931 35992 ft 429 kts 148°
2026-05-04 20:16 -7.75800 -34.85567 35989 ft 421 kts 166°
2026-05-04 20:16 -7.78659 -34.85082 35986 ft 413 kts 184°
2026-05-04 20:16 -7.81443 -34.85492 35986 ft 406 kts 201°
2026-05-04 20:17 -7.83981 -34.86666 35982 ft 400 kts 215°
2026-05-04 20:17 -7.88532 -34.89905 35980 ft 399 kts 218°
2026-05-04 20:18 -7.93043 -34.93087 35973 ft 395 kts 217°
2026-05-04 20:18 -7.97584 -34.96207 35892 ft 389 kts 216°
2026-05-04 20:18 -7.99805 -34.97758 35354 ft 386 kts 221°
2026-05-04 20:19 -8.01589 -34.99750 34744 ft 382 kts 240°
2026-05-04 20:19 -8.02646 -35.02153 34187 ft 379 kts 256°
2026-05-04 20:19 -8.02970 -35.04788 33491 ft 381 kts 272°
2026-05-04 20:19 -8.02483 -35.07426 32695 ft 386 kts 289°
2026-05-04 20:20 -8.01167 -35.09804 31882 ft 394 kts 307°
2026-05-04 20:20 -7.99415 -35.11965 31088 ft 398 kts 302°
2026-05-04 20:20 -7.97670 -35.14167 30285 ft 410 kts 314°
2026-05-04 20:20 -7.95297 -35.16006 29174 ft 451 kts 326°
2026-05-04 20:21 -7.92430 -35.17392 27918 ft 462 kts 340°
2026-05-04 20:21 -7.89340 -35.18151 27040 ft 463 kts 351°
2026-05-04 20:21 -7.82940 -35.18742 25291 ft 461 kts
2026-05-04 20:22 -7.79764 -35.18388 24512 ft 456 kts 14°
2026-05-04 20:22 -7.76776 -35.17403 23826 ft 448 kts 26°
2026-05-04 20:22 -7.74129 -35.15864 23103 ft 440 kts 37°
2026-05-04 20:22 -7.71858 -35.13822 22169 ft 435 kts 49°
2026-05-04 20:23 -7.70074 -35.11359 21170 ft 434 kts 61°
2026-05-04 20:23 -7.68871 -35.08583 20341 ft 429 kts 73°
2026-05-04 20:23 -7.68292 -35.05652 19569 ft 424 kts 85°
2026-05-04 20:23 -7.68378 -35.02736 18851 ft 419 kts 98°
2026-05-04 20:24 -7.69128 -34.99913 18088 ft 415 kts 111°
2026-05-04 20:24 -7.70518 -34.97360 17200 ft 414 kts 124°
2026-05-04 20:24 -7.72455 -34.95190 16026 ft 420 kts 137°
2026-05-04 20:24 -7.74845 -34.93448 14864 ft 429 kts 147°
2026-05-04 20:25 -7.77585 -34.92254 14137 ft 436 kts 162°
2026-05-04 20:25 -7.80525 -34.91837 13965 ft 418 kts 178°
2026-05-04 20:25 -7.83347 -34.92190 13771 ft 401 kts 192°
2026-05-04 20:25 -7.85969 -34.92968 13533 ft 385 kts 196°
2026-05-04 20:26 -7.88487 -34.93778 13075 ft 376 kts 195°
2026-05-04 20:26 -7.90938 -34.94684 12607 ft 377 kts 205°
2026-05-04 20:26 -7.93042 -34.96269 12501 ft 378 kts 225°
2026-05-04 20:26 -7.94481 -34.98366 12458 ft 360 kts 244°
2026-05-04 20:27 -7.95123 -35.00732 12424 ft 340 kts 266°
2026-05-04 20:27 -7.94917 -35.03006 12359 ft 313 kts 289°
2026-05-04 20:27 -7.93937 -35.04813 12257 ft 297 kts 318°
2026-05-04 20:27 -7.92214 -35.05863 12109 ft 288 kts 350°
2026-05-04 20:28 -7.90355 -35.05842 11888 ft 261 kts 22°
2026-05-04 20:28 -7.88970 -35.04846 11569 ft 236 kts 58°
2026-05-04 20:28 -7.88629 -35.03388 11481 ft 203 kts 99°
2026-05-04 20:28 -7.89350 -35.02304 11274 ft 199 kts 147°
2026-05-04 20:29 -7.90644 -35.01700 11147 ft 201 kts 146°
2026-05-04 20:29 -7.91773 -35.00903 10520 ft 202 kts 140°
2026-05-04 20:29 -7.92919 -35.00023 9814 ft 206 kts 140°
2026-05-04 20:29 -7.94015 -34.99157 9149 ft 205 kts 140°
2026-05-04 20:30 -7.95117 -34.98248 8481 ft 204 kts 140°
2026-05-04 20:30 -7.96167 -34.97356 7894 ft 203 kts 140°
2026-05-04 20:30 -7.97271 -34.96396 6942 ft 213 kts 140°
2026-05-04 20:30 -7.98391 -34.95402 5927 ft 224 kts 140°
2026-05-04 20:31 -7.99552 -34.94379 5301 ft 210 kts 144°
2026-05-04 20:31 -8.00816 -34.93882 4669 ft 201 kts 172°
2026-05-04 20:31 -8.02211 -34.94018 4003 ft 197 kts 188°
2026-05-04 20:31 -8.03505 -34.94278 3362 ft 193 kts 188°
2026-05-04 20:32 -8.04861 -34.94547 2590 ft 195 kts 186°
2026-05-04 20:32 -8.06158 -34.94488 1854 ft 192 kts 167°
2026-05-04 20:32 -8.07436 -34.94067 1331 ft 182 kts 159°
2026-05-04 20:32 -8.08603 -34.93650 799 ft 176 kts 161°
2026-05-04 20:33 -8.09739 -34.93274 394 ft 165 kts 162°
2026-05-04 20:33 -8.10691 -34.92959 198 ft 137 kts 163°
2026-05-04 20:33 -8.11602 -34.92657 154 ft 148 kts 162°
2026-05-04 20:33 -8.12662 -34.92293 852 ft 170 kts 161°
2026-05-04 20:34 -8.13843 -34.91883 1731 ft 192 kts 160°
2026-05-04 20:34 -8.15096 -34.91526 1664 ft 193 kts 168°
2026-05-04 20:34 -8.16440 -34.90968 768 ft 221 kts 139°
2026-05-04 20:34 -8.17127 -34.89763 1187 ft 193 kts 101°
2026-05-04 20:35 -8.16803 -34.88467 1449 ft 202 kts 52°
2026-05-04 20:35 -8.15546 -34.87824 1709 ft 215 kts
2026-05-04 20:35 -8.14147 -34.88296 1970 ft 218 kts 322°
2026-05-04 20:35 -8.13013 -34.89197 2078 ft 193 kts 322°
2026-05-04 20:36 -8.11866 -34.89618 2054 ft 169 kts 354°
2026-05-04 20:36 -8.10719 -34.89752 2039 ft 165 kts 354°
2026-05-04 20:36 -8.09584 -34.89916 2046 ft 159 kts 352°
2026-05-04 20:36 -8.08523 -34.90072 2158 ft 154 kts 358°
2026-05-04 20:37 -8.07453 -34.90080 2246 ft 155 kts 357°
2026-05-04 20:37 -8.06614 -34.90642 1844 ft 147 kts 288°
2026-05-04 20:37 -8.06697 -34.91559 1407 ft 131 kts 239°
2026-05-04 20:37 -8.07108 -34.92375 968 ft 129 kts 233°
2026-05-04 20:38 -8.07689 -34.92983 705 ft 120 kts 207°
2026-05-04 20:38 -8.08428 -34.93369 666 ft 119 kts 199°
2026-05-04 20:38 -8.09203 -34.93509 468 ft 115 kts 167°
2026-05-04 20:38 -8.09944 -34.93179 371 ft 115 kts 158°
2026-05-04 20:39 -8.10710 -34.92955 227 ft 116 kts 162°
2026-05-04 20:39 -8.11468 -34.92702 110 ft 119 kts 163°
2026-05-04 20:39 -8.12228 -34.92455 50 ft 100 kts 158°
2026-05-04 20:39 -8.12721 -34.92288 58 ft 50 kts 160°
2026-05-04 20:40 -8.12907 -34.92226 55 ft 15 kts 162°
2026-05-04 20:40 -8.13010 -34.92193 53 ft 17 kts 162°
2026-05-04 20:40 -8.13125 -34.92155 52 ft 19 kts 160°
2026-05-04 20:40 -8.13242 -34.92083 49 ft 20 kts 136°
2026-05-04 20:41 -8.13291 -34.92014 49 ft 7 kts 111°
2026-05-04 20:41 -8.13276 -34.91957 49 ft 11 kts 56°
2026-05-04 20:41 -8.13257 -34.91933 50 ft 3 kts 28°
2026-05-04 20:41 -8.13226 -34.91912 51 ft 5 kts 61°
2026-05-04 20:42 -8.13226 -34.91898 52 ft 3 kts 88°
2026-05-04 20:42 -8.13222 -34.91888 52 ft 1 kts 64°
2026-05-04 20:42 -8.13213 -34.91870 52 ft 4 kts 64°
2026-05-04 20:42 -8.13212 -34.91867 52 ft 0 kts 66°